Weather History for Fort Polk, LA

Change the Weather History Date:

Monday, January 6, 2014

  Actual Average (KPOE) Record (KPOE)
Temperature  
Mean Temperature 26 °F -  
Max Temperature 30 °F 58 °F 75 °F (2008)
Min Temperature 19 °F 38 °F 21 °F (2014)
Degree Days  
Heating Degree Days 40    
Moisture  
Dew Point 10 °F    
Average Humidity 57    
Maximum Humidity 85    
Minimum Humidity 28    
Precipitation  
Precipitation 0.00 in - - ()
Sea Level Pressure  
Sea Level Pressure 30.57 in    
Wind  
Wind Speed 8 mph (North)    
Max Wind Speed 14 mph    
Max Gust Speed 25 mph    
Visibility 10 miles    
Events      
Averages and records for this station are not official NWS values.
T = Trace of Precipitation, MM = Missing Value Source: NWS Daily Summary

Daily Weather History Graph

Daily Weather History Graph

Search for Another Location

Airport:

Trip Planner

Search our weather history database for the weather conditions in past years. The results will help you decide how hot, cold, wet, or windy it might be!

Date:

Astronomy

Jan. 06, 2014 Rise Set
Actual Time 7:13 AM CST 5:25 PM CST
Civil Twilight 6:46 AM CST 5:51 PM CST
Nautical Twilight 6:16 AM CST 6:21 PM CST
Astronomical Twilight 5:46 AM CST 6:51 PM CST
Moon 10:52 AM CST (1/6) 11:32 PM CST (1/6)
Length of Visible Light 11h 05m
Length of Day
10h 12m
Waxing Crescent, 35% of the Moon is Illuminated
Jan 6
Waxing Crescent
Jan 7
First Quarter
Jan 15
Full
Jan 23
Last Quarter
Jan 30
New

Hourly Weather History & Observations

Time (CST) Temp. Windchill Dew Point Humidity Pressure Visibility Wind Dir Wind Speed Gust Speed Precip Events Conditions
12:56 AM 26.1 °F 14.5 °F 16.0 °F 66% 30.38 in 10.0 mi North 13.8 mph 25.3 mph N/A   Clear
1:56 AM 25.0 °F 14.8 °F 16.0 °F 69% 30.41 in 10.0 mi North 10.4 mph 20.7 mph N/A   Clear
3:56 AM 23.0 °F 14.7 °F 16.0 °F 74% 30.45 in 10.0 mi North 6.9 mph - N/A   Clear
4:56 AM 21.9 °F 11.7 °F 15.1 °F 75% 30.48 in 10.0 mi North 9.2 mph - N/A   Clear
5:56 AM 21.9 °F 13.4 °F 14.0 °F 72% 30.51 in 10.0 mi North 6.9 mph - N/A   Clear
6:56 AM 21.0 °F 13.4 °F 12.9 °F 71% 30.53 in 10.0 mi Variable 5.8 mph - N/A   Clear
7:56 AM 21.0 °F 9.3 °F 10.0 °F 63% 30.58 in 10.0 mi North 11.5 mph - N/A   Clear
8:56 AM 23.0 °F 14.7 °F 7.0 °F 50% 30.63 in 10.0 mi Variable 6.9 mph - N/A   Clear
9:56 AM 24.1 °F 13.1 °F 3.9 °F 42% 30.64 in 10.0 mi North 11.5 mph 20.7 mph N/A   Clear
10:56 AM 26.1 °F 20.5 °F 3.0 °F 37% 30.63 in 10.0 mi Variable 4.6 mph 18.4 mph N/A   Clear
11:56 AM 28.0 °F 20.0 °F 1.9 °F 33% 30.61 in 10.0 mi North 8.1 mph - N/A   Clear
12:56 PM 30.0 °F 21.1 °F 1.9 °F 30% 30.58 in 10.0 mi NNW 10.4 mph 19.6 mph N/A   Clear
1:56 PM 30.0 °F 23.2 °F 1.9 °F 30% 30.58 in 10.0 mi Variable 6.9 mph 19.6 mph N/A   Clear
2:56 PM 30.9 °F 22.8 °F 1.0 °F 28% 30.59 in 10.0 mi North 9.2 mph - N/A   Clear
3:56 PM 30.9 °F 27.5 °F 3.0 °F 31% 30.57 in 10.0 mi NNW 3.5 mph - N/A   Clear
4:56 PM 30.0 °F 26.5 °F 3.0 °F 32% 30.57 in 10.0 mi Variable 3.5 mph - N/A   Clear
5:56 PM 27.0 °F 23.0 °F 3.0 °F 36% 30.60 in 10.0 mi Variable 3.5 mph - N/A   Clear
6:56 PM 24.1 °F - 10.0 °F 55% 30.60 in 10.0 mi Calm Calm - N/A   Clear
7:56 PM 21.9 °F - 16.0 °F 78% 30.61 in 10.0 mi Calm Calm - N/A   Clear
8:56 PM 21.0 °F - 16.0 °F 81% 30.64 in 10.0 mi Calm Calm - N/A   Clear
9:56 PM 21.0 °F - 17.1 °F 85% 30.63 in 10.0 mi Calm Calm - N/A   Clear
10:56 PM 21.0 °F - 17.1 °F 85% 30.63 in 10.0 mi Calm Calm - N/A   Clear
11:56 PM 19.9 °F - 16.0 °F 85% 30.63 in 10.0 mi Calm Calm - N/A   Clear